Dewpoint
71 70 70 68 68 69 71 68 56 61 60 54 54 56 56 62 61 60 58 60 56 61 63 62 53 57 59 58 59 61 62 56 55 50 51 65 69 71 72 71 72 73 73 73 73 73 73 74 75 76 76 76 75 75 75 76 76 76 76 76 77 76 76 75 75 75 75 75 75 75 74 74 75 75 75 76 76 77 76 75 75 75 75 75 75 75 75 75 75 76 76 76 76 76 76 76 76
67 67 67 67 73 72 65 69 59 57 58 54 55 59 59 62 60 56 56 60 59 60 59 55 55 56 57 59 58 60 62 64 64 65 68 69 70 70 71 72 72 72 72 73 73 73 73 74 75 76 76 75 75 75 75 76 76 76 76 76 77 76 75 76 75 75 75 76 75 75 75 75 74 74 75 75 75 76 76 76 75 75 75 75 75 76 76 75 75 75 75 75 76 75 75 76 76
62 64 69 72 74 71 68 67 55 56 53 52 54 58 61 59 59 59 60 59 60 62 57 56 57 57 56 58 58 59 60 64 65 66 67 69 68 69 71 72 72 73 73 73 73 73 73 74 76 76 76 75 75 75 76 76 76 76 76 76 76 75 75 76 76 75 75 75 75 75 75 75 74 74 76 75 75 75 75 76 75 75 75 75 76 76 76 75 75 75 75 75 76 76 75 76 76
63 67 72 74 67 71 62 61 59 56 54 53 53 57 62 59 58 61 60 61 62 58 59 54 56 56 57 58 59 61 62 63 66 66 67 67 67 69 70 71 73 73 73 73 73 73 74 75 76 76 75 75 76 76 76 76 76 76 76 76 76 75 75 75 75 76 76 76 75 75 75 75 74 74 75 75 75 75 75 75 75 75 75 75 76 75 75 75 76 76 75 75 76 76 76 76 76
64 69 72 72 67 62 62 60 59 58 54 55 52 59 59 58 58 60 61 61 59 58 56 54 55 59 59 57 58 60 62 65 65 66 66 67 68 69 70 71 71 72 72 73 73 73 73 75 76 76 76 76 76 76 76 76 76 76 76 76 76 75 75 75 75 75 75 75 75 75 75 75 75 75 75 75 75 75 76 75 75 75 75 75 75 75 75 75 75 75 75 75 75 75 75 75 76
65 70 76 70 65 68 65 58 57 57 60 62 58 58 60 60 60 59 59 61 61 60 55 55 53 53 55 56 60 61 63 62 65 65 65 66 68 70 70 71 71 71 72 73 73 72 73 76 76 76 76 76 76 76 76 76 76 76 76 76 76 75 75 75 75 75 74 75 75 75 75 75 75 75 75 75 75 75 75 75 75 75 75 75 75 75 76 76 75 75 75 75 75 75 75 75 76
66 70 72 70 67 68 58 57 57 58 62 62 61 59 60 59 60 58 57 59 63 60 56 50 51 52 54 57 60 62 63 64 65 65 66 67 69 69 70 70 70 70 71 72 73 74 75 76 76 76 76 76 76 76 76 75 75 76 76 76 76 76 75 75 75 75 75 75 75 76 76 76 75 75 74 75 75 75 75 75 75 76 75 75 76 76 76 75 75 75 75 75 75 75 76 76 76
74 66 67 64 61 62 58 59 59 61 61 60 63 60 60 60 60 59 58 58 56 54 49 50 52 54 55 57 58 63 64 65 66 67 68 69 69 70 70 69 69 70 71 72 73 74 76 76 76 76 76 76 76 75 75 75 76 75 76 76 76 75 75 75 75 75 74 74 75 76 75 75 74 75 74 74 74 74 75 75 75 75 75 75 75 75 75 75 74 75 74 75 75 76 76 76 76
70 70 70 63 58 60 58 58 59 62 62 63 62 64 63 62 61 59 60 59 56 61 52 51 52 53 55 58 62 64 65 66 66 69 68 68 68 69 70 69 69 70 71 72 73 74 75 75 75 75 75 75 75 75 75 76 76 76 76 76 75 75 75 75 75 74 74 74 75 75 75 75 75 74 74 74 74 75 75 75 75 74 75 75 75 75 75 75 75 75 74 75 75 76 76 76 75
70 69 62 62 61 55 57 58 58 60 60 62 62 61 61 63 61 62 57 59 58 52 51 52 55 56 57 60 62 63 64 66 67 67 67 68 68 69 70 70 70 70 72 73 73 74 74 76 75 75 75 75 75 75 76 76 75 76 75 75 75 75 75 75 75 75 74 74 74 75 75 75 74 75 74 74 74 74 74 74 74 74 74 74 74 74 75 75 75 75 75 75 75 75 76 75 75
65 68 68 60 57 56 55 56 59 61 61 62 61 63 63 63 63 61 60 58 56 52 53 55 55 56 57 59 62 65 65 66 66 67 67 68 68 68 69 70 71 71 72 72 73 74 74 74 75 75 75 76 75 75 75 75 75 75 75 75 75 75 75 75 75 75 75 74 75 75 75 75 75 75 74 75 75 75 75 74 74 74 74 74 74 75 75 75 75 75 75 75 75 75 75 76 75
62 63 63 57 56 57 58 57 58 61 61 61 61 64 65 65 64 59 58 57 55 52 53 55 56 58 57 59 62 64 64 63 64 67 68 68 68 69 69 70 70 71 72 73 73 73 74 74 74 75 75 75 75 75 75 75 75 75 75 75 75 74 75 74 74 74 74 74 74 74 74 74 75 75 75 74 75 75 74 74 74 75 74 74 74 74 75 76 76 75 75 75 75 75 75 75 75
64 65 61 59 58 60 61 58 59 60 60 61 61 64 66 64 62 61 60 58 54 52 54 58 57 57 56 57 61 63 62 63 64 67 68 67 68 68 69 69 70 70 72 73 72 73 73 74 75 74 75 76 75 75 76 75 75 75 75 75 74 74 75 75 75 74 74 74 74 74 74 74 75 75 75 74 74 74 74 74 75 75 74 74 74 74 75 75 75 76 76 75 75 75 75 75 75
66 66 63 58 62 61 60 59 60 58 57 61 63 65 64 64 64 62 60 58 58 57 56 56 56 57 56 57 59 61 62 64 64 65 66 66 67 68 68 69 70 70 71 71 72 73 73 74 74 74 74 74 74 75 75 75 75 75 75 74 74 74 74 75 74 74 74 74 74 74 74 74 75 75 75 75 75 74 74 74 74 74 74 74 74 75 75 75 75 76 76 76 75 75 74 73 73
66 67 63 61 60 60 61 58 59 58 57 61 63 65 65 64 66 62 61 60 59 57 56 57 56 56 55 55 57 61 62 63 64 66 67 67 67 68 68 68 68 69 70 71 72 72 72 73 74 74 75 74 74 74 74 74 75 75 75 74 74 74 75 74 74 74 74 74 74 74 75 74 74 74 74 75 75 74 74 73 74 74 74 75 75 75 75 75 75 76 76 75 75 76 75 73 73
70 68 63 58 58 58 59 60 60 59 59 63 64 66 63 66 68 62 63 62 57 59 55 55 56 57 56 56 59 62 62 63 64 66 67 67 68 68 68 68 68 69 70 71 71 72 73 73 74 74 74 74 74 74 74 74 74 74 74 74 75 74 74 74 74 74 74 74 75 74 74 74 75 74 74 75 74 74 74 73 74 74 74 74 75 74 74 75 76 76 75 75 75 75 75 75 74
71 69 60 59 57 59 60 60 60 56 59 62 65 65 62 63 67 68 68 62 57 58 56 54 53 56 55 57 62 64 64 65 65 65 67 67 67 67 68 67 68 69 70 70 71 72 73 73 73 74 74 73 73 74 74 74 74 74 74 74 74 75 75 75 75 75 75 74 75 74 75 73 73 74 74 74 75 74 74 74 73 74 74 75 74 75 74 75 76 76 75 75 75 75 74 75 75
69 62 60 58 61 59 62 60 61 59 59 60 64 63 63 61 64 65 63 60 59 59 57 53 54 54 56 58 63 64 64 64 64 64 66 66 67 67 67 67 67 68 70 72 72 72 72 73 73 73 73 73 73 74 74 75 74 74 74 74 74 74 74 75 74 74 75 74 75 74 74 74 73 73 74 74 74 74 74 74 74 74 74 74 74 74 74 75 75 75 75 75 75 74 74 74 75
64 62 61 58 62 63 62 63 63 61 60 62 64 65 63 61 64 61 60 59 58 58 52 51 53 55 56 58 64 64 64 64 64 65 65 65 66 66 66 67 67 68 70 71 72 73 72 73 74 73 73 73 73 73 74 74 74 74 74 74 74 75 74 74 74 74 73 73 74 74 74 73 73 74 74 74 75 74 73 74 74 74 74 74 74 75 75 75 75 75 75 75 74 75 75 75 75
66 63 59 61 64 65 64 65 62 64 62 63 63 64 64 60 61 59 60 58 58 54 51 53 53 54 55 57 63 64 64 64 65 64 64 65 65 65 66 66 67 68 69 70 71 73 72 72 72 73 73 73 73 73 74 74 74 74 74 74 74 74 74 74 74 74 73 73 73 74 73 73 74 73 74 74 75 73 73 74 74 74 74 74 75 75 75 75 76 75 75 75 76 77 75 75 75
65 63 61 63 64 64 64 66 65 66 65 63 64 63 61 60 61 62 59 55 56 55 53 53 53 54 54 55 59 63 64 64 64 64 64 64 65 65 65 66 67 68 69 70 71 72 72 71 72 73 73 73 73 73 73 74 74 74 74 74 74 74 74 73 73 73 74 74 74 74 73 73 73 73 73 73 73 73 73 73 74 74 74 74 75 74 75 75 75 75 75 76 75 76 76 75 75
64 63 65 64 64 63 66 66 67 66 68 64 63 61 62 64 64 65 57 55 54 55 54 53 53 53 53 55 57 59 60 62 63 63 64 65 65 65 65 65 67 69 70 70 71 72 72 72 73 73 74 74 74 73 74 74 73 73 73 73 73 74 74 73 73 73 74 74 75 73 73 73 73 73 73 72 73 73 73 73 73 74 74 75 76 74 74 74 75 75 75 75 75 75 75 75 74
61 61 64 65 65 64 66 67 66 66 63 62 63 62 61 62 62 65 63 58 56 56 55 53 53 52 53 56 57 58 59 59 61 62 63 64 64 65 64 66 67 68 69 68 70 70 71 72 72 73 73 74 74 73 73 73 73 73 73 73 72 73 73 73 73 74 74 74 75 73 72 72 72 73 73 72 72 73 73 73 74 74 74 74 75 75 74 76 76 76 76 75 75 76 75 74 74
64 61 64 65 66 65 67 66 67 66 62 62 64 64 63 63 59 64 62 58 56 57 55 54 52 52 53 55 56 57 58 58 59 60 61 62 63 64 64 66 66 67 67 68 68 69 70 71 71 72 72 73 72 72 73 73 73 73 73 74 74 75 74 73 74 74 74 74 75 75 73 72 72 72 73 72 73 73 73 74 74 75 75 75 77 76 75 75 75 75 75 74 74 73 73 72 72
63 62 65 66 67 66 67 67 67 66 67 66 66 63 62 63 61 63 61 58 56 55 55 54 52 52 52 54 55 56 57 57 57 58 59 60 62 63 65 66 66 67 66 67 69 69 70 71 71 71 72 72 72 72 72 73 73 72 74 74 74 74 74 73 74 74 74 74 75 75 75 72 72 72 72 73 73 73 73 74 74 75 75 75 75 75 75 75 75 75 74 75 74 74 73 73 72
63 64 65 65 66 66 68 66 67 66 66 65 63 61 62 63 61 62 59 57 55 56 55 54 52 52 52 53 55 56 56 56 57 57 58 59 61 62 64 65 67 67 66 68 68 68 70 70 70 71 71 72 73 72 71 71 72 72 73 73 74 74 73 73 73 73 74 74 74 75 75 73 72 73 73 73 73 73 73 73 74 74 75 75 75 74 75 76 75 74 74 73 72 72 73 73 74
63 64 65 66 66 66 67 64 66 67 65 65 63 62 65 62 63 53 57 56 56 55 54 53 51 51 51 53 55 56 55 55 56 56 58 59 59 61 64 65 66 66 68 68 68 68 70 69 70 70 71 74 73 72 71 71 72 72 73 72 74 73 73 74 74 74 74 74 74 74 74 75 72 72 73 73 73 73 72 72 73 74 74 74 74 74 75 75 75 74 73 73 73 72 71 71 71
65 65 65 66 67 67 67 66 65 69 64 68 67 63 64 62 61 53 53 54 55 54 52 52 50 50 51 54 54 55 55 54 55 55 56 57 59 60 62 65 65 66 66 67 68 69 69 69 69 70 72 73 73 71 72 71 71 72 74 74 73 73 73 73 73 74 74 74 73 73 74 75 73 73 74 74 73 73 73 73 73 73 73 74 75 74 74 75 75 74 74 73 73 72 71 71 68
65 65 63 63 65 64 65 64 65 67 64 67 70 62 60 60 58 56 53 54 53 52 51 50 49 49 51 53 53 55 53 54 54 55 56 58 58 59 60 63 64 65 66 67 68 69 68 69 70 70 71 72 72 71 71 71 71 72 73 72 73 73 73 72 73 73 73 73 73 74 74 75 75 74 73 73 74 73 73 73 73 73 73 74 74 74 74 75 74 73 72 73 72 72 72 70 69
65 64 63 61 63 62 64 66 65 66 66 68 68 53 57 58 61 54 53 53 52 51 51 50 49 49 51 52 52 52 54 55 55 56 56 57 57 57 59 60 63 64 66 67 67 68 68 69 69 69 70 70 72 71 71 71 70 71 72 73 75 73 72 72 73 73 73 73 74 75 76 75 75 75 74 73 73 73 73 72 74 73 74 74 75 74 73 74 74 74 72 71 72 73 72 69 68
61 63 65 59 58 58 63 64 65 63 66 66 64 54 55 59 61 58 53 52 51 51 50 48 48 50 51 51 52 52 54 55 55 56 56 56 56 57 59 61 62 64 66 65 66 67 68 69 70 68 70 71 71 71 71 71 70 71 71 72 72 72 71 70 72 72 73 74 74 76 75 75 73 73 74 73 73 73 73 73 73 73 73 74 75 75 76 75 74 72 72 70 71 73 72 72 68
59 56 56 60 58 59 62 64 65 62 63 65 63 54 55 57 57 63 56 52 52 50 48 47 49 50 50 51 51 52 53 54 55 55 55 56 56 57 59 61 62 63 63 64 66 67 67 68 70 69 70 70 70 70 70 70 69 69 71 73 71 70 71 70 71 71 72 74 74 75 74 75 73 72 72 73 72 73 73 72 73 73 73 73 75 74 74 72 73 73 72 73 73 74 75 71 69
58 54 55 57 59 59 60 63 65 65 63 64 62 56 59 55 56 60 55 50 50 49 47 48 50 50 49 50 51 52 52 54 54 54 55 56 56 57 60 61 61 62 63 65 66 66 67 68 69 69 69 69 70 71 71 72 70 70 70 70 71 72 71 70 70 70 72 72 73 75 76 75 73 72 72 73 72 72 72 72 73 73 73 74 74 74 73 74 73 72 72 77 75 74 75 73 71
57 56 56 59 58 59 58 63 65 65 64 62 62 59 57 58 58 59 56 52 50 49 48 49 49 49 49 51 51 51 52 53 54 54 55 56 56 58 60 64 61 62 63 64 65 65 66 67 68 68 69 69 71 71 72 71 70 70 70 70 71 69 69 70 69 70 70 71 73 74 75 75 73 73 73 73 72 73 72 72 73 73 73 73 73 73 72 73 74 73 74 75 77 76 75 74 74
55 52 53 55 59 58 59 58 63 64 64 62 61 60 59 60 58 57 57 60 54 49 50 50 50 49 49 50 51 51 52 52 53 54 55 56 57 59 60 59 61 62 62 64 65 66 67 67 69 70 69 70 71 71 72 72 71 70 68 69 69 68 67 68 69 69 70 72 73 74 75 75 73 72 73 73 73 74 72 72 72 72 73 73 74 74 74 76 77 75 75 74 76 76 75 74 73
51 55 53 55 56 58 59 61 65 64 62 61 60 59 60 60 59 54 56 57 55 50 52 52 51 50 49 50 50 50 52 52 54 53 55 56 59 60 59 59 61 61 63 65 67 67 67 69 68 69 70 70 71 72 72 71 71 70 68 69 69 68 67 71 69 69 70 72 73 74 75 75 73 73 74 73 72 72 72 74 73 74 76 76 75 73 74 74 75 74 74 74 74 74 75 75 73
51 54 53 55 55 58 60 61 63 64 62 61 61 59 60 60 60 60 59 55 56 51 53 52 52 50 48 49 49 49 52 52 53 54 56 57 60 60 60 61 61 64 66 66 66 67 68 69 69 69 70 71 71 72 70 70 70 69 69 68 68 68 68 68 69 70 71 72 72 73 75 74 72 73 73 74 74 73 75 75 75 75 76 75 75 74 74 75 76 75 76 75 74 73 73 73 70
50 51 53 53 55 55 59 60 63 64 60 59 61 59 60 59 62 61 60 61 53 52 52 52 53 50 50 51 49 50 52 53 53 55 56 57 59 60 61 62 66 64 66 67 67 68 69 69 69 69 70 70 71 71 71 70 71 70 68 69 69 70 69 68 68 69 70 72 74 74 75 75 72 72 73 73 75 76 75 75 76 76 76 76 76 75 75 76 75 74 74 74 75 73 72 72 68
48 48 51 53 55 58 60 61 63 62 60 59 59 59 60 61 62 62 62 61 61 62 63 60 56 51 52 51 49 52 52 52 53 55 55 57 59 61 63 63 64 64 66 67 68 69 69 69 70 70 70 70 70 71 71 70 71 70 69 69 69 69 70 69 68 70 72 72 73 74 75 75 75 74 74 75 75 75 75 75 75 76 76 77 75 74 74 75 75 75 75 73 73 74 74 71 70
38 47 49 51 57 55 54 59 62 62 61 60 59 59 59 61 63 63 65 63 63 64 65 66 64 55 53 51 51 52 52 52 53 55 55 57 58 63 64 64 64 65 66 67 68 69 69 71 71 71 70 70 70 71 73 70 71 69 70 69 69 68 69 71 70 71 71 71 73 74 74 75 76 75 75 75 75 76 75 75 75 76 76 76 75 74 74 74 75 75 74 75 75 73 69 67 73
36 46 47 54 55 55 55 57 60 61 61 61 60 58 57 59 59 62 65 66 64 64 64 63 63 63 59 56 56 52 53 53 53 54 55 57 59 63 64 65 65 65 66 67 68 68 70 70 70 71 71 71 71 74 71 71 73 72 70 71 71 71 71 70 70 70 70 73 73 74 74 75 75 74 74 75 76 75 76 76 76 76 76 76 76 76 75 75 75 75 75 75 74 72 72 71 70
42 43 44 55 54 56 58 58 57 57 56 61 57 51 52 58 59 61 63 65 64 66 63 62 62 61 59 55 54 53 54 54 54 54 55 58 58 63 65 65 65 65 66 67 67 68 70 70 71 72 73 71 71 73 73 73 72 71 70 69 67 68 69 69 68 69 70 71 71 72 73 74 74 73 74 75 76 76 76 76 76 76 76 76 77 76 77 77 74 74 74 75 76 75 73 71 69
31 53 52 52 56 57 58 57 54 52 51 57 61 50 49 57 57 60 62 63 63 64 64 62 61 61 59 56 57 53 54 54 54 55 56 58 59 62 65 65 65 65 66 67 67 69 70 71 72 73 72 71 72 74 74 74 74 73 72 71 69 68 68 71 70 70 70 74 71 71 73 74 74 74 74 74 75 75 75 75 76 76 76 76 77 76 75 75 74 74 77 76 76 77 74 70 70
36 49 52 54 56 57 57 55 55 55 59 59 59 57 51 50 56 60 61 62 62 62 62 62 62 60 58 56 57 54 54 54 54 55 57 58 60 61 64 65 65 65 66 67 68 70 71 71 72 73 73 73 73 74 74 74 73 73 72 71 71 70 71 73 72 72 73 75 72 71 73 73 74 74 74 75 75 75 75 75 76 76 75 75 77 76 76 75 74 75 77 78 76 77 76 70 70
36 47 49 52 54 54 55 55 54 55 54 51 56 58 52 50 57 62 62 60 60 60 61 62 62 61 60 55 55 54 54 54 55 55 57 59 60 61 62 64 65 66 66 66 69 70 71 72 73 74 74 73 74 74 74 74 74 73 72 71 71 71 72 74 74 74 73 74 72 73 73 74 74 74 74 75 76 75 76 75 76 76 76 76 77 77 76 76 76 77 77 77 76 76 75 75 73
31 41 47 52 53 55 53 52 52 53 52 49 54 56 50 50 56 58 61 59 59 60 61 61 61 60 60 57 54 54 56 55 55 55 57 59 61 61 63 63 64 65 66 67 69 71 71 72 73 74 74 74 74 74 74 74 74 74 72 71 71 71 73 73 72 71 72 72 72 73 73 74 74 74 75 75 75 76 76 76 76 75 76 75 78 74 75 77 75 75 77 76 76 76 76 75 73
30 38 48 48 51 51 51 53 52 51 48 49 53 55 52 47 54 56 56 57 59 61 60 61 61 60 60 58 53 53 55 56 55 56 57 59 61 61 63 63 63 65 66 67 70 71 71 72 72 73 74 74 74 74 74 75 75 74 73 72 71 71 72 73 72 71 72 72 71 72 73 74 74 73 74 76 75 76 75 76 75 75 75 76 77 76 75 75 75 76 77 77 76 75 77 74 73
23 27 46 48 49 53 49 51 52 46 44 48 53 54 51 46 52 57 56 61 63 62 60 60 60 59 59 58 54 54 57 57 56 57 57 59 60 60 62 62 63 65 65 69 70 71 71 71 72 73 74 74 74 74 75 75 74 74 75 73 73 72 72 73 72 72 72 71 71 72 74 74 74 74 73 75 75 76 76 76 76 75 75 75 75 75 76 75 75 75 76 75 76 78 78 76 75
21 26 33 37 42 45 43 44 42 42 42 46 52 53 51 48 55 56 57 57 61 64 63 60 60 59 59 58 54 54 56 56 57 58 58 58 59 60 60 61 64 65 66 69 70 70 71 71 72 73 74 74 74 73 74 75 74 74 74 74 75 73 72 73 73 73 73 72 73 73 73 73 73 73 73 74 73 74 75 75 75 74 76 75 75 75 76 76 75 75 77 76 76 76 77 77 76
21 27 31 28 31 34 31 40 40 41 45 50 52 54 49 56 56 56 58 57 59 62 64 64 61 59 58 58 55 55 56 57 58 57 57 58 59 60 59 62 64 65 66 68 69 70 71 71 72 73 74 74 74 73 74 75 74 74 74 75 76 76 73 72 73 73 73 74 73 73 72 73 73 72 73 73 72 72 74 75 75 74 75 77 77 76 76 76 77 76 77 77 76 76 79 75 72
21 25 23 30 29 31 34 34 35 37 44 50 53 50 49 46 54 59 57 58 58 60 61 64 65 61 59 59 57 55 54 56 57 57 57 59 60 60 60 63 63 65 66 67 68 70 71 72 73 73 74 74 74 74 74 74 75 75 75 75 75 76 74 74 74 73 73 73 74 72 72 73 72 73 72 72 73 72 74 75 74 75 76 76 77 76 76 77 77 78 78 77 76 78 77 77 73
15 21 24 31 27 33 27 39 40 42 43 44 49 51 55 50 60 59 58 58 57 58 59 62 65 65 59 59 59 55 54 55 57 57 57 59 59 60 61 62 62 65 66 67 68 70 70 72 73 73 74 74 74 74 73 74 75 75 75 75 74 76 76 75 75 76 73 74 73 73 73 73 73 73 73 72 74 73 73 73 74 74 76 76 76 75 75 75 76 75 77 77 76 76 76 73 72
16 21 22 23 26 24 30 41 39 43 43 43 50 51 53 53 56 56 57 57 57 59 61 61 63 66 62 59 59 56 54 55 57 56 56 58 59 61 61 61 62 63 65 66 68 69 70 72 72 73 74 74 74 74 73 74 75 75 74 75 74 75 75 75 74 74 74 73 73 73 73 72 72 72 74 72 73 72 73 73 73 73 75 75 75 76 75 75 74 76 76 77 76 74 74 75 74
17 12 15 24 23 25 28 28 36 34 31 43 48 47 49 50 49 54 55 55 57 57 60 61 62 64 63 59 59 59 57 55 56 56 58 59 60 61 60 61 62 62 63 66 68 68 70 71 72 73 74 73 73 73 73 74 75 74 74 74 74 74 74 73 73 72 73 73 74 72 72 73 73 72 72 71 73 75 74 75 72 74 74 75 75 75 75 76 74 74 75 75 75 77 77 78 77
9 8 7 7 27 18 31 27 29 30 31 42 45 46 50 50 50 52 53 53 56 58 59 60 60 60 61 59 59 59 60 56 56 56 58 59 59 61 60 61 61 62 64 67 68 68 70 71 71 72 73 73 73 73 73 73 74 74 74 74 73 73 72 71 71 72 72 72 72 71 71 73 72 73 73 73 73 72 74 74 72 75 73 74 74 73 74 75 75 74 75 74 75 77 76 76 76
8 10 3 13 12 15 28 20 29 31 29 38 43 46 45 49 49 52 52 53 54 57 59 59 59 59 60 59 59 59 61 60 56 56 58 57 58 59 59 60 60 62 63 67 67 68 70 70 71 71 72 72 73 72 73 73 73 73 73 74 74 73 73 72 72 72 71 71 71 71 70 70 71 72 72 73 71 71 73 72 73 73 71 74 74 73 73 74 74 74 74 73 73 75 74 73 74
8 6 4 5 18 16 16 30 21 28 31 29 40 40 44 50 56 53 53 53 55 56 58 59 59 59 60 60 60 60 60 63 57 56 59 57 58 58 60 60 60 62 64 65 65 67 69 69 70 71 71 71 72 71 71 72 72 72 72 73 73 73 72 72 71 72 70 70 70 71 70 70 71 71 71 72 71 70 72 71 71 71 70 71 72 73 73 74 74 73 74 75 76 75 74 74 74
5 2 4 4 8 14 16 26 21 26 29 27 28 36 46 56 61 57 55 56 56 57 58 59 59 60 60 60 60 60 60 61 62 56 59 57 57 56 57 60 60 62 63 63 63 66 67 68 70 70 71 71 71 71 71 72 72 71 71 72 72 73 73 72 70 71 71 70 70 70 69 71 69 70 71 72 72 71 71 70 70 69 71 70 72 73 73 73 73 74 73 73 75 76 76 76 75